Time,TemperatureF,DewpointF,PressureIn,WindDirection,WindDirectionDegrees,WindSpeedMPH,WindSpeedGustMPH,Humidity,HourlyPrecipIn,Conditions,Clouds,dailyrainin,SoftwareType,DateUTC
2013-03-10 00:09:00,43.0,31.0,30.50,NE,40,0.0,2.0,63,0.00,,,0.00,weatherlink.com 1.10,2013-03-10 08:09:00,
2013-03-10 00:25:00,41.8,31.0,30.50,NE,40,1.0,1.0,65,0.00,,,0.00,weatherlink.com 1.10,2013-03-10 08:25:00,
2013-03-10 00:39:00,41.5,31.0,30.49,NW,313,0.0,1.0,67,0.00,,,0.00,weatherlink.com 1.10,2013-03-10 08:39:00,
2013-03-10 00:55:00,41.0,32.0,30.49,East,89,1.0,3.0,69,0.00,,,0.00,weatherlink.com 1.10,2013-03-10 08:55:00,
2013-03-10 01:10:00,39.8,31.0,30.49,ENE,67,0.0,2.0,72,0.00,,,0.00,weatherlink.com 1.10,2013-03-10 09:10:00,
2013-03-10 01:25:00,39.3,32.0,30.49,East,86,0.0,1.0,74,0.00,,,0.00,weatherlink.com 1.10,2013-03-10 09:25:00,
2013-03-10 01:40:00,38.9,32.0,30.49,East,86,0.0,1.0,75,0.00,,,0.00,weatherlink.com 1.10,2013-03-10 09:40:00,
2013-03-10 01:55:00,38.1,32.0,30.49,East,86,0.0,1.0,78,0.00,,,0.00,weatherlink.com 1.10,2013-03-10 09:55:00,
2013-03-10 03:10:00,37.6,32.0,30.49,East,89,0.0,1.0,80,0.00,,,0.00,weatherlink.com 1.10,2013-03-10 10:10:00,
2013-03-10 03:25:00,37.4,32.0,30.50,North,7,1.0,2.0,81,0.00,,,0.00,weatherlink.com 1.10,2013-03-10 10:25:00,
2013-03-10 03:40:00,36.7,32.0,30.49,North,6,1.0,1.0,83,0.00,,,0.00,weatherlink.com 1.10,2013-03-10 10:40:00,
2013-03-10 03:55:00,36.4,32.0,30.49,North,6,0.0,1.0,84,0.00,,,0.00,weatherlink.com 1.10,2013-03-10 10:55:00,
2013-03-10 04:10:00,36.0,32.0,30.48,NE,39,0.0,1.0,85,0.00,,,0.00,weatherlink.com 1.10,2013-03-10 11:10:00,
2013-03-10 04:25:00,36.5,32.0,30.49,ENE,78,1.0,2.0,85,0.00,,,0.00,weatherlink.com 1.10,2013-03-10 11:25:00,
2013-03-10 04:40:00,36.0,32.0,30.49,NW,318,0.0,1.0,85,0.00,,,0.00,weatherlink.com 1.10,2013-03-10 11:40:00,
2013-03-10 04:55:00,36.2,32.0,30.49,North,355,0.0,3.0,85,0.00,,,0.00,weatherlink.com 1.10,2013-03-10 11:55:00,
2013-03-10 05:10:00,36.1,32.0,30.49,NE,37,0.0,1.0,86,0.00,,,0.00,weatherlink.com 1.10,2013-03-10 12:10:00,
2013-03-10 05:25:00,36.4,33.0,30.50,NE,54,0.0,1.0,87,0.00,,,0.00,weatherlink.com 1.10,2013-03-10 12:25:00,
2013-03-10 05:40:00,37.5,33.0,30.50,NE,53,0.0,1.0,85,0.00,,,0.00,weatherlink.com 1.10,2013-03-10 12:40:00,
2013-03-10 05:55:00,37.6,34.0,30.50,East,82,0.0,1.0,86,0.00,,,0.00,weatherlink.com 1.10,2013-03-10 12:55:00,
2013-03-10 06:10:00,38.1,34.0,30.50,East,82,0.0,1.0,86,0.00,,,0.00,weatherlink.com 1.10,2013-03-10 13:10:00,
2013-03-10 06:25:00,38.6,35.0,30.50,East,84,0.0,1.0,85,0.00,,,0.00,weatherlink.com 1.10,2013-03-10 13:25:00,
2013-03-10 06:40:00,38.5,34.0,30.50,East,82,0.0,1.0,85,0.00,,,0.00,weatherlink.com 1.10,2013-03-10 13:40:00,
2013-03-10 06:55:00,38.4,34.0,30.50,East,82,0.0,1.0,85,0.00,,,0.00,weatherlink.com 1.10,2013-03-10 13:55:00,
2013-03-10 07:10:00,38.5,34.0,30.49,East,89,0.0,1.0,85,0.00,,,0.00,weatherlink.com 1.10,2013-03-10 14:10:00,
2013-03-10 07:25:00,38.3,34.0,30.49,East,89,0.0,1.0,85,0.00,,,0.00,weatherlink.com 1.10,2013-03-10 14:25:00,
2013-03-10 07:40:00,38.1,35.0,30.48,East,91,0.0,1.0,87,0.00,,,0.00,weatherlink.com 1.10,2013-03-10 14:40:00,
2013-03-10 07:55:00,37.9,34.0,30.48,NW,318,0.0,2.0,87,0.00,,,0.00,weatherlink.com 1.10,2013-03-10 14:55:00,
2013-03-10 08:10:00,38.3,35.0,30.49,NW,318,0.0,2.0,87,0.00,,,0.00,weatherlink.com 1.10,2013-03-10 15:10:00,
2013-03-10 08:25:00,38.5,35.0,30.48,NW,318,0.0,2.0,87,0.00,,,0.00,weatherlink.com 1.10,2013-03-10 15:25:00,
2013-03-10 08:40:00,38.8,35.0,30.48,NW,318,0.0,0.0,87,0.00,,,0.00,weatherlink.com 1.10,2013-03-10 15:40:00,
2013-03-10 08:55:00,39.4,36.0,30.49,NW,318,0.0,1.0,86,0.00,,,0.00,weatherlink.com 1.10,2013-03-10 15:55:00,
2013-03-10 09:10:00,40.2,36.0,30.48,NW,318,0.0,2.0,86,0.00,,,0.00,weatherlink.com 1.10,2013-03-10 16:10:00,
2013-03-10 09:25:00,41.6,37.0,30.48,SSW,201,0.0,2.0,82,0.00,,,0.00,weatherlink.com 1.10,2013-03-10 16:25:00,
2013-03-10 09:40:00,43.2,36.0,30.48,East,81,0.0,4.0,77,0.00,,,0.00,weatherlink.com 1.10,2013-03-10 16:40:00,
2013-03-10 09:55:00,44.3,36.0,30.48,NNE,23,0.0,3.0,73,0.00,,,0.00,weatherlink.com 1.10,2013-03-10 16:55:00,
2013-03-10 10:10:00,45.0,36.0,30.48,ENE,77,0.0,3.0,70,0.00,,,0.00,weatherlink.com 1.10,2013-03-10 17:10:00,
2013-03-10 10:25:00,45.5,37.0,30.47,ENE,63,0.0,167.0,73,0.00,,,0.00,weatherlink.com 1.10,2013-03-10 17:25:00,
2013-03-10 10:40:00,46.4,36.0,30.46,East,88,0.0,2.0,67,0.00,,,0.00,weatherlink.com 1.10,2013-03-10 17:40:00,
2013-03-10 10:55:00,47.3,36.0,30.46,SE,137,0.0,2.0,66,0.00,,,0.00,weatherlink.com 1.10,2013-03-10 17:55:00,
2013-03-10 11:10:00,47.7,37.0,30.46,SE,124,0.0,2.0,66,0.00,,,0.00,weatherlink.com 1.10,2013-03-10 18:10:00,
2013-03-10 11:25:00,48.2,36.0,30.45,ESE,112,1.0,4.0,64,0.00,,,0.00,weatherlink.com 1.10,2013-03-10 18:25:00,
2013-03-10 11:40:00,48.9,37.0,30.44,East,92,1.0,6.0,64,0.00,,,0.00,weatherlink.com 1.10,2013-03-10 18:40:00,
2013-03-10 11:57:00,49.3,38.0,30.43,SSE,156,1.0,4.0,65,0.00,,,0.00,weatherlink.com 1.10,2013-03-10 18:57:00,
2013-03-10 12:11:00,50.3,38.0,30.43,SE,146,0.0,4.0,62,0.00,,,0.00,weatherlink.com 1.10,2013-03-10 19:11:00,
2013-03-10 12:26:00,51.1,38.0,30.43,East,82,1.0,5.0,61,0.00,,,0.00,weatherlink.com 1.10,2013-03-10 19:26:00,
2013-03-10 12:56:00,51.0,39.0,30.43,SW,229,0.0,7.0,63,0.00,,,0.00,weatherlink.com 1.10,2013-03-10 19:56:00,
2013-03-10 13:11:00,51.0,38.0,30.42,ENE,77,3.0,7.0,62,0.00,,,0.00,weatherlink.com 1.10,2013-03-10 20:11:00,
2013-03-10 13:41:00,50.0,39.0,30.42,NNW,342,1.0,4.0,65,0.00,,,0.00,weatherlink.com 1.10,2013-03-10 20:41:00,
2013-03-10 13:56:00,49.6,39.0,30.41,NE,46,2.0,4.0,68,0.00,,,0.00,weatherlink.com 1.10,2013-03-10 20:56:00,
2013-03-10 14:11:00,49.3,39.0,30.40,ESE,112,1.0,5.0,68,0.00,,,0.00,weatherlink.com 1.10,2013-03-10 21:11:00,
2013-03-10 14:26:00,49.8,40.0,30.40,North,9,1.0,5.0,69,0.00,,,0.00,weatherlink.com 1.10,2013-03-10 21:26:00,
2013-03-10 14:41:00,49.3,40.0,30.39,WSW,243,0.0,3.0,71,0.00,,,0.00,weatherlink.com 1.10,2013-03-10 21:41:00,
2013-03-10 14:56:00,50.0,41.0,30.40,North,360,3.0,6.0,71,0.00,,,0.00,weatherlink.com 1.10,2013-03-10 21:56:00,
2013-03-10 15:11:00,49.5,41.0,30.40,ENE,75,1.0,7.0,73,0.00,,,0.00,weatherlink.com 1.10,2013-03-10 22:11:00,
2013-03-10 15:41:00,48.4,42.0,30.40,East,86,4.0,7.0,77,0.00,,,0.00,weatherlink.com 1.10,2013-03-10 22:41:00,
2013-03-10 15:56:00,47.8,42.0,30.41,ENE,60,2.0,7.0,79,0.00,,,0.00,weatherlink.com 1.10,2013-03-10 22:56:00,
2013-03-10 16:11:00,47.8,42.0,30.41,NW,318,5.0,5.0,79,0.00,,,0.00,weatherlink.com 1.10,2013-03-10 23:11:00,
2013-03-10 16:26:00,48.0,41.0,30.40,ESE,122,3.0,8.0,78,0.00,,,0.00,weatherlink.com 1.10,2013-03-10 23:26:00,
2013-03-10 16:41:00,49.3,42.0,30.41,SSE,156,3.0,6.0,76,0.00,,,0.00,weatherlink.com 1.10,2013-03-10 23:41:00,
2013-03-10 16:57:00,49.5,42.0,30.41,North,6,1.0,4.0,75,0.00,,,0.00,weatherlink.com 1.10,2013-03-10 23:57:00,
2013-03-10 17:11:00,49.5,42.0,30.41,NE,34,0.0,4.0,75,0.00,,,0.00,weatherlink.com 1.10,2013-03-11 00:11:00,
2013-03-10 17:41:00,47.3,40.0,30.41,SW,218,1.0,4.0,77,0.00,,,0.00,weatherlink.com 1.10,2013-03-11 00:41:00,
2013-03-10 17:57:00,46.6,40.0,30.41,NW,323,2.0,2.0,79,0.00,,,0.00,weatherlink.com 1.10,2013-03-11 00:57:00,
2013-03-10 18:11:00,46.1,41.0,30.41,WSW,239,2.0,3.0,81,0.00,,,0.00,weatherlink.com 1.10,2013-03-11 01:11:00,
2013-03-10 18:26:00,45.9,40.0,30.41,East,101,2.0,4.0,81,0.00,,,0.00,weatherlink.com 1.10,2013-03-11 01:26:00,
2013-03-10 18:41:00,45.5,40.0,30.41,East,94,2.0,4.0,82,0.00,,,0.00,weatherlink.com 1.10,2013-03-11 01:41:00,
2013-03-10 18:57:00,45.3,40.0,30.41,NE,56,0.0,4.0,83,0.00,,,0.00,weatherlink.com 1.10,2013-03-11 01:57:00,
2013-03-10 19:12:00,45.1,41.0,30.41,NNW,342,2.0,4.0,84,0.00,,,0.00,weatherlink.com 1.10,2013-03-11 02:12:00,
2013-03-10 19:28:00,44.7,41.0,30.41,NNE,19,0.0,3.0,85,0.00,,,0.00,weatherlink.com 1.10,2013-03-11 02:28:00,
2013-03-10 19:42:00,44.4,41.0,30.41,NNE,30,0.0,5.0,86,0.00,,,0.00,weatherlink.com 1.10,2013-03-11 02:42:00,
2013-03-10 20:11:00,44.1,41.0,30.41,ESE,117,3.0,5.0,88,0.00,,,0.00,weatherlink.com 1.10,2013-03-11 03:11:00,
2013-03-10 20:28:00,44.3,41.0,30.42,NNE,16,1.0,7.0,87,0.00,,,0.00,weatherlink.com 1.10,2013-03-11 03:28:00,
2013-03-10 20:43:00,44.3,41.0,30.42,East,84,0.0,5.0,88,0.00,,,0.00,weatherlink.com 1.10,2013-03-11 03:43:00,
2013-03-10 20:56:00,44.2,41.0,30.42,North,1,1.0,5.0,88,0.00,,,0.00,weatherlink.com 1.10,2013-03-11 03:56:00,
2013-03-10 21:12:00,44.0,41.0,30.41,ENE,68,0.0,4.0,89,0.00,,,0.00,weatherlink.com 1.10,2013-03-11 04:12:00,
2013-03-10 21:27:00,43.8,41.0,30.41,East,82,0.0,4.0,90,0.00,,,0.00,weatherlink.com 1.10,2013-03-11 04:27:00,
2013-03-10 21:42:00,43.9,41.0,30.42,SE,136,1.0,4.0,90,0.00,,,0.00,weatherlink.com 1.10,2013-03-11 04:42:00,
2013-03-10 21:57:00,44.1,41.0,30.42,East,94,2.0,4.0,90,0.00,,,0.00,weatherlink.com 1.10,2013-03-11 04:57:00,
2013-03-10 22:12:00,43.9,42.0,30.42,NE,53,2.0,4.0,91,0.00,,,0.00,weatherlink.com 1.10,2013-03-11 05:12:00,
2013-03-10 22:27:00,43.7,41.0,30.42,NE,38,0.0,3.0,91,0.00,,,0.00,weatherlink.com 1.10,2013-03-11 05:27:00,
2013-03-10 22:42:00,43.9,42.0,30.42,ESE,105,0.0,5.0,91,0.00,,,0.00,weatherlink.com 1.10,2013-03-11 05:42:00,
2013-03-10 22:57:00,43.8,41.0,30.43,NE,37,1.0,4.0,91,0.00,,,0.00,weatherlink.com 1.10,2013-03-11 05:57:00,
2013-03-10 23:12:00,43.7,42.0,30.43,NNE,22,2.0,4.0,92,0.00,,,0.00,weatherlink.com 1.10,2013-03-11 06:12:00,
2013-03-10 23:27:00,43.5,41.0,30.43,SSE,156,1.0,3.0,92,0.00,,,0.00,weatherlink.com 1.10,2013-03-11 06:27:00,
2013-03-10 23:42:00,43.5,42.0,30.43,ENE,63,0.0,3.0,93,0.00,,,0.00,weatherlink.com 1.10,2013-03-11 06:42:00,
2013-03-10 23:57:00,43.4,42.0,30.43,ENE,64,2.0,2.0,93,0.00,,,0.00,weatherlink.com 1.10,2013-03-11 06:57:00,